• Join FlightAware (Why Join?)
  • Login
  • US Flag 
06:37PM EST


 

Airport Tracker/Info


-or-


 

Live Flight TrackerFlight Track Log ✈ AWE3794 ✈ 22-Apr-2013 ✈ KCLE - KPHL

Flight Track Log - Related Links

Times and Time Zones

All times are in EDT time to prevent confusion due to time zone crossing. See the AWE3794 flight status page for this flight to view local times or setup timezone preferences in your user account.

Time Position Orientation Groundspeed Altitude Reporting Facility
EDT Latitude Longitude Course Direction KTS MPH feet Rate Location/Type
09:44AM 41.4244 -81.7683 82° East 227 261 3,200  Level Cleveland Center
09:45AM 41.3897 -81.6847 119° Southeast 274 315 4,900 1,800 Climbing Cleveland Center
09:46AM 41.3297 -81.6478 155° Southeast 274 315 7,100 2,220 Climbing Cleveland Center
09:47AM 41.1185 -81.2461 118° Southeast  Level FlightAware Approximate
09:47AM 41.2675 -81.5942 147° Southeast 268 308 9,400  Level Cleveland Center
09:48AM 41.0727 -81.1179 114° Southeast  Level FlightAware Approximate
09:48AM 41.2350 -81.5053 116° Southeast 268 308 11,100  Level Cleveland Center
09:49AM 41.1961 -81.4108 119° Southeast 283 326 13,800 2,160 Climbing Cleveland Center
09:50AM 41.1508 -81.3111 121° Southeast 305 351 15,500 1,920 Climbing Cleveland Center
09:51AM 41.1058 -81.2031 119° Southeast 324 373 17,700 1,740 Climbing Cleveland Center
09:52AM 41.0731 -81.0817 110° East 334 384 19,000 1,380 Climbing Cleveland Center
09:53AM 41.0422 -80.9603 109° East 340 391 20,500 1,500 Climbing Cleveland Center
09:54AM 41.0050 -80.8336 111° Southeast 353 406 22,000 1,440 Climbing Cleveland Center
09:55AM 40.9678 -80.7069 111° Southeast 364 419 23,400 1,080 Climbing Cleveland Center
09:56AM 40.9303 -80.5722 110° East 375 432 24,200 780 Climbing Cleveland Center
09:57AM 40.8906 -80.4347 111° Southeast 388 447 25,000 360 Climbing Cleveland Center
09:58AM 40.8486 -80.3031 113° Southeast 394 453 25,000  Level Cleveland Center
09:59AM 40.8106 -80.1717 111° Southeast 389 448 25,000  Level Cleveland Center
10:00AM 40.7642 -80.0431 115° Southeast 389 448 25,000  Level Cleveland Center
10:01AM 40.7197 -79.9228 116° Southeast 377 434 25,000  Level Cleveland Center
10:02AM 40.6753 -79.7947 115° Southeast 377 434 25,000  Level Cleveland Center
10:03AM 40.6264 -79.6611 116° Southeast 377 434 25,000  Level Cleveland Center
10:04AM 40.5794 -79.5361 116° Southeast 377 434 25,000  Level Cleveland Center
10:05AM 40.5508 -79.4000 105° East 377 434 25,000  Level Cleveland Center
10:06AM 40.5392 -79.2772 97° East 372 428 25,000  Level Cleveland Center
10:07AM 40.5247 -79.1244 97° East 396 456 25,000  Level Cleveland Center
10:08AM 40.5081 -78.9719 98° East 411 473 25,000  Level Cleveland Center
10:09AM 40.4933 -78.8139 97° East 426 490 25,000  Level Cleveland Center
10:10AM 40.4783 -78.6614 97° East 426 490 25,000  Level Cleveland Center
10:11AM 40.4586 -78.4928 99° East 426 490 25,000  Level Cleveland Center
10:13AM 40.4339 -78.2403 97° East 429 494 25,000  Level New York Center
10:14AM 40.4181 -78.0914 98° East 423 487 25,000  Level New York Center
10:15AM 40.3983 -77.9367 99° East 423 487 25,000  Level New York Center
10:16AM 40.3825 -77.7850 98° East 423 487 25,000 -120 Level New York Center
10:17AM 40.3664 -77.6333 98° East 423 487 24,800 -1,140 Descending New York Center
10:18AM 40.3519 -77.4850 97° East 418 481 22,800 -2,040 Descending New York Center
10:19AM 40.3347 -77.3442 99° East 400 460 20,900 -1,980 Descending New York Center
10:20AM 40.3156 -77.2008 100° East 395 455 18,900 -1,440 Descending New York Center
10:21AM 40.3014 -77.0769 98° East 389 448 18,000 -480 Descending New York Center
10:22AM 40.2697 -76.9272 105° East 382 440 18,000  Level New York Center
10:23AM 40.2425 -76.8078 107° East 387 445 18,000 -540 Level New York Center
10:24AM 40.2081 -76.6633 107° East 387 445 17,000 -1,320 Descending New York Center
10:25AM 40.1769 -76.5331 107° East 387 445 15,500 -1,440 Descending New York Center
10:26AM 40.1475 -76.4083 107° East 371 427 14,100 -1,500 Descending New York Center
10:26AM 40.1342 -76.3478 106° East 356 410 13,300 -1,620 Descending FAA TRACON SMA TRACON (SMA)
10:26AM 40.1225 -76.3094 112° Southeast 355 409 12,800 -1,500 Descending FAA TRACON SMA TRACON (SMA)
10:27AM 40.1192 -76.2708 96° East 353 406 12,300 -1,500 Descending FAA TRACON SMA TRACON (SMA)
10:27AM 40.1150 -76.2233 97° East 339 390 11,800 -1,560 Descending FAA TRACON SMA TRACON (SMA)
10:27AM 40.1133 -76.1836 93° East 344 396 11,300 -1,440 Descending FAA TRACON SMA TRACON (SMA)
10:28AM 40.1100 -76.1472 97° East 341 392 10,900 -1,200 Descending FAA TRACON SMA TRACON (SMA)
10:28AM 40.1067 -76.1022 96° East 328 377 10,500 -1,080 Descending FAA TRACON SMA TRACON (SMA)
10:28AM 40.1050 -76.0694 94° East 318 366 10,200 -1,080 Descending FAA TRACON SMA TRACON (SMA)
10:29AM 40.1022 -76.0369 96° East 285 328 9,800 -1,680 Descending FAA TRACON SMA TRACON (SMA)
10:29AM 40.1003 -75.9972 94° East 276 318 9,100 -1,800 Descending FAA TRACON SMA TRACON (SMA)
10:29AM 40.0978 -75.9675 96° East 276 318 8,600 -1,500 Descending FAA TRACON SMA TRACON (SMA)
10:30AM 40.0958 -75.9375 95° East 272 313 8,100 -1,500 Descending FAA TRACON SMA TRACON (SMA)
10:30AM 40.0928 -75.9008 96° East 266 306 7,600 -1,200 Descending FAA TRACON SMA TRACON (SMA)
10:30AM 40.0911 -75.8722 94° East 262 302 7,300 -1,080 Descending FAA TRACON SMA TRACON (SMA)
10:31AM 40.0886 -75.8433 96° East 260 299 6,900 -1,500 Descending FAA TRACON SMA TRACON (SMA)
10:31AM 40.0867 -75.8056 94° East 260 299 6,300 -1,380 Descending FAA TRACON SMA TRACON (SMA)
10:31AM 40.0842 -75.7783 97° East 259 298 6,000 -480 Descending FAA TRACON SMA TRACON (SMA)
10:32AM 40.0825 -75.7497 94° East 259 298 6,000  Level FAA TRACON SMA TRACON (SMA)
10:32AM 40.0803 -75.7139 95° East 258 297 6,000  Level FAA TRACON SMA TRACON (SMA)
10:32AM 40.0808 -75.6850 89° East 259 298 6,000  Level FAA TRACON SMA TRACON (SMA)
10:33AM 40.0806 -75.6578 91° East 254 292 6,000  Level FAA TRACON SMA TRACON (SMA)
10:33AM 40.0800 -75.6225 91° East 252 290 6,000 -480 Level FAA TRACON SMA TRACON (SMA)
10:33AM 40.0797 -75.5936 91° East 251 289 5,700 -1,200 Descending FAA TRACON SMA TRACON (SMA)
10:34AM 40.0797 -75.5661 90° East 247 284 5,200 -1,380 Descending FAA TRACON SMA TRACON (SMA)
10:34AM 40.0803 -75.5392 88° East 243 280 4,800 -1,500 Descending FAA TRACON SMA TRACON (SMA)
10:34AM 40.0808 -75.5075 89° East 237 273 4,200 -1,200 Descending FAA TRACON SMA TRACON (SMA)
10:35AM 40.0803 -75.4803 92° East 230 265 4,000 -300 Descending FAA TRACON SMA TRACON (SMA)
10:35AM 40.0803 -75.4550 90° East 231 266 4,000  Level FAA TRACON SMA TRACON (SMA)
10:35AM 40.0675 -75.4269 121° Southeast 230 265 4,000  Level FAA TRACON SMA TRACON (SMA)
10:36AM 40.0497 -75.4161 155° Southeast 243 280 4,000  Level FAA TRACON SMA TRACON (SMA)
10:36AM 40.0289 -75.4089 165° South 243 280 4,000  Level FAA TRACON SMA TRACON (SMA)
10:36AM 40.0039 -75.4006 166° South 247 284 4,000  Level FAA TRACON SMA TRACON (SMA)
10:37AM 39.9839 -75.3919 162° South 245 282 4,000  Level FAA TRACON SMA TRACON (SMA)
10:37AM 39.9628 -75.3842 164° South 247 284 4,000  Level FAA TRACON SMA TRACON (SMA)
10:37AM 39.9375 -75.3747 164° South 246 283 4,000  Level FAA TRACON SMA TRACON (SMA)
10:38AM 39.9194 -75.3683 165° South 213 245 4,000  Level FAA TRACON SMA TRACON (SMA)
10:38AM 39.8989 -75.3611 165° South 191 220 4,000  Level FAA TRACON SMA TRACON (SMA)
10:38AM 39.8831 -75.3556 165° South 191 220 4,000  Level FAA TRACON SMA TRACON (SMA)
10:39AM 39.8672 -75.3500 165° South 194 223 4,000  Level FAA TRACON SMA TRACON (SMA)
10:39AM 39.8483 -75.3433 165° South 192 221 4,000  Level FAA TRACON SMA TRACON (SMA)
10:39AM 39.8317 -75.3378 166° South 192 221 4,000  Level FAA TRACON SMA TRACON (SMA)
10:40AM 39.8161 -75.3322 165° South 190 219 4,000  Level FAA TRACON SMA TRACON (SMA)
10:40AM 39.7969 -75.3256 165° South 187 215 4,000  Level FAA TRACON SMA TRACON (SMA)
10:40AM 39.7811 -75.3192 163° South 191 220 4,000  Level FAA TRACON SMA TRACON (SMA)
10:41AM 39.7656 -75.3139 165° South 193 222 4,000 -480 Level FAA TRACON SMA TRACON (SMA)
10:41AM 39.7458 -75.3064 164° South 192 221 3,700 -900 Descending FAA TRACON SMA TRACON (SMA)
10:41AM 39.7297 -75.3003 164° South 192 221 3,400 -900 Descending FAA TRACON SMA TRACON (SMA)
10:42AM 39.7139 -75.2942 163° South 193 222 3,100 -600 Descending FAA TRACON SMA TRACON (SMA)
10:42AM 39.6936 -75.2867 164° South 195 224 3,000 -180 Descending FAA TRACON SMA TRACON (SMA)
10:42AM 39.6794 -75.2789 157° South 188 216 3,000  Level FAA TRACON SMA TRACON (SMA)
10:43AM 39.6739 -75.2597 111° Southeast 164 189 3,000  Level FAA TRACON SMA TRACON (SMA)
10:43AM 39.6761 -75.2350 83° East 176 203 3,000  Level FAA TRACON SMA TRACON (SMA)
10:43AM 39.6789 -75.2153 80° East 183 211 3,000  Level FAA TRACON SMA TRACON (SMA)
10:44AM 39.6817 -75.1956 80° East 178 205 3,000  Level FAA TRACON SMA TRACON (SMA)
10:44AM 39.6844 -75.1717 81° East 178 205 3,000  Level FAA TRACON SMA TRACON (SMA)
10:44AM 39.6908 -75.1536 65° Northeast 183 211 3,000  Level FAA TRACON SMA TRACON (SMA)